軌道要素
Epoch 2006 Aug. 13.0 TT = JDT 2453960.5
T 2006 Aug. 28.53466 TT MPC
q 0.5106035 (2000.0) P Q
n 0.21296236 Peri. 64.04108 +0.56063951 +0.81813250
a 2.7771595 Node 240.64741 -0.80248929 +0.49874370
e 0.8161418 Incl. 8.43383 -0.20419176 +0.28620611
P 4.63
From 368 observations 2006 Oct. 19-2012 Jan. 3, mean residual 0".4.
|